Weather History for De Kooy, Netherlands

Change the Weather History Date:

Wednesday, February 26, 2014

  Actual Average Record
Temperature  
Mean Temperature 42 °F -  
Max Temperature 48 °F 44 °F 51 °F (2008)
Min Temperature 37 °F 36 °F 32 °F (2003)
Degree Days  
Heating Degree Days 22    
Moisture  
Dew Point 42 °F    
Average Humidity 93    
Maximum Humidity 100    
Minimum Humidity 77    
Precipitation  
Precipitation 0.00 in 0.07 in - ()
Sea Level Pressure  
Sea Level Pressure 29.91 in    
Wind  
Wind Speed 12 mph ()    
Max Wind Speed 20 mph    
Max Gust Speed -    
Visibility 5.7 miles    
Events      
Averages and records for this station are not official NWS values.
T = Trace of Precipitation, MM = Missing Value Source: Averaged Metar Reports

Daily Weather History Graph

Daily Weather History Graph

Search for Another Location

Airport:

Trip Planner

Search our weather history database for the weather conditions in past years. The results will help you decide how hot, cold, wet, or windy it might be!

Date:

Astronomy

Feb. 26, 2014 Rise Set
Actual Time 7:34 AM CET 6:13 PM CET
Civil Twilight 7:00 AM CET 6:48 PM CET
Nautical Twilight 6:20 AM CET 7:28 PM CET
Astronomical Twilight 5:40 AM CET 8:08 PM CET
Moon 5:27 AM CET (2/26) 2:52 PM CET (2/26)
Length of Visible Light 11h 48m
Length of Day
10h 38m
Waning Crescent, 12% of the Moon is Illuminated
Feb 26
Waning Crescent
Mar 1
New
Mar 8
First Quarter
Mar 16
Full
Mar 24
Last Quarter

Hourly Weather History & Observations

Time (CET) Temp. Windchill Dew Point Humidity Pressure Visibility Wind Dir Wind Speed Gust Speed Precip Events Conditions
12:00 AM 46 °F - 44 °F 91% 29.74 in 9 mi South 11.2 mph - -   Unknown Precipitation
12:01 AM 46.4 °F 41.5 °F 44.6 °F 93% 29.74 in 6.2 mi South 10.4 mph - N/A   Overcast
12:25 AM 46.4 °F 41.1 °F 44.6 °F 93% 29.74 in 5.6 mi South 11.5 mph - N/A   Overcast
12:42 AM 46.4 °F 39.8 °F 42.8 °F 87% 29.74 in 6.2 mi SSW 16.1 mph - N/A   Mostly Cloudy
12:55 AM 44.6 °F 38.1 °F 42.8 °F 93% 29.74 in 6.2 mi SSW 13.8 mph - N/A   Overcast
1:00 AM 45 °F - 43 °F 92% 29.77 in 8 mi SSW 15.7 mph - -   Partly Cloudy
1:25 AM 44.6 °F 37.8 °F 42.8 °F 93% 29.77 in 6.2 mi SSW 15.0 mph - N/A   Mostly Cloudy
1:55 AM 44.6 °F 37.4 °F 42.8 °F 93% 29.77 in 6.2 mi SSW 16.1 mph - N/A   Overcast
2:00 AM 45 °F - 43 °F 91% 29.79 in 9 mi SSW 15.7 mph - -   Overcast
2:25 AM 44.6 °F 38.4 °F 42.8 °F 93% 29.77 in 6.2 mi SW 12.7 mph - N/A   Mostly Cloudy
2:55 AM 42.8 °F 36.2 °F 41.0 °F 93% 29.80 in 6.2 mi SSW 12.7 mph - N/A   Unknown
3:00 AM 43 °F - 41 °F 92% 29.80 in 7 mi SSW 11.2 mph - -  
3:18 AM 42.8 °F 36.6 °F 41.0 °F 93% 29.80 in 5.6 mi South 11.5 mph - N/A   Scattered Clouds
3:25 AM 42.8 °F 36.6 °F 41.0 °F 93% 29.80 in 5.6 mi SSW 11.5 mph - N/A   Scattered Clouds
3:27 AM 42.8 °F 36.6 °F 41.0 °F 93% 29.80 in 5.0 mi SSW 11.5 mph - N/A   Partly Cloudy
3:34 AM 42.8 °F 36.6 °F 41.0 °F 93% 29.80 in 4.3 mi South 11.5 mph - N/A   Partly Cloudy
3:38 AM 42.8 °F 36.6 °F 41.0 °F 93% 29.80 in 5.0 mi SSW 11.5 mph - N/A   Partly Cloudy
3:55 AM 41.0 °F 34.3 °F 41.0 °F 100% 29.80 in 5.0 mi South 11.5 mph - N/A   Mist
4:00 AM 42 °F - 40 °F 92% 29.81 in 5 mi South 11.2 mph - -   Mist
4:08 AM 41.0 °F 35.2 °F 41.0 °F 100% 29.80 in 4.3 mi South 9.2 mph - N/A   Mist
4:25 AM 41.0 °F 35.2 °F 39.2 °F 93% 29.80 in 3.7 mi South 9.2 mph - N/A   Mist
4:55 AM 41.0 °F 34.3 °F 39.2 °F 93% 29.80 in 3.7 mi South 11.5 mph - N/A   Mist
5:00 AM 40 °F - 39 °F 97% 29.83 in 4 mi South 8.9 mph - -   Mist
5:25 AM 39.2 °F 33.0 °F 39.2 °F 100% 29.83 in - South 9.2 mph - N/A   Mist
5:55 AM 39.2 °F 33.0 °F 39.2 °F 100% 29.83 in - South 9.2 mph - N/A   Mist
6:00 AM 39 °F - 39 °F 98% 29.84 in 3 mi South 8.9 mph - -   Mist
6:04 AM 39.2 °F 33.0 °F 39.2 °F 100% 29.83 in - South 9.2 mph - N/A   Mist
6:18 AM 37.4 °F 32.1 °F 37.4 °F 100% 29.83 in - South 6.9 mph - N/A   Mist
6:25 AM 37.4 °F 32.1 °F 37.4 °F 100% 29.83 in 2.2 mi South 6.9 mph - N/A   Mist
6:55 AM 39.2 °F 33.6 °F 37.4 °F 93% 29.83 in 2.2 mi South 8.1 mph - N/A   Mist
6:56 AM 39.2 °F 33.6 °F 39.2 °F 100% 29.83 in - South 8.1 mph - N/A   Partly Cloudy
7:00 AM 38 °F - 38 °F 100% 29.86 in 2 mi South 8.9 mph - -   Mist
7:08 AM 39.2 °F 33.6 °F 39.2 °F 100% 29.86 in 2.5 mi South 8.1 mph - N/A   Scattered Clouds
7:12 AM 39.2 °F 33.6 °F 39.2 °F 100% 29.86 in - South 8.1 mph - N/A   Mostly Cloudy
7:25 AM 39.2 °F 34.2 °F 39.2 °F 100% 29.86 in - South 6.9 mph - N/A   Overcast
7:28 AM 39.2 °F 33.6 °F 39.2 °F 100% 29.86 in - South 8.1 mph - N/A   Overcast
7:32 AM 39.2 °F 33.6 °F 39.2 °F 100% 29.86 in - South 8.1 mph - N/A   Overcast
7:45 AM 39.2 °F 32.0 °F 39.2 °F 100% 29.86 in - South 11.5 mph - N/A   Overcast
7:55 AM 39.2 °F 32.5 °F 39.2 °F 100% 29.86 in 2.5 mi South 10.4 mph - N/A   Mostly Cloudy
8:00 AM 40 °F - 39 °F 96% 29.88 in 2 mi South 8.9 mph - -   Mist
8:13 AM 41.0 °F 35.2 °F 39.2 °F 93% 29.89 in 2.2 mi South 9.2 mph - N/A   Overcast
8:17 AM 41.0 °F 35.2 °F 39.2 °F 93% 29.89 in - South 9.2 mph - N/A   Overcast
8:25 AM 41.0 °F 35.2 °F 41.0 °F 100% 29.89 in - South 9.2 mph - N/A   Mostly Cloudy
8:36 AM 41.0 °F 35.2 °F 39.2 °F 93% 29.89 in - South 9.2 mph - N/A   Partly Cloudy
8:46 AM 41.0 °F 35.2 °F 41.0 °F 100% 29.89 in 3.1 mi South 9.2 mph - N/A   Overcast
8:55 AM 41.0 °F 35.2 °F 41.0 °F 100% 29.89 in 3.1 mi South 9.2 mph - N/A   Overcast
9:00 AM 42 °F - 41 °F 93% 29.91 in 4 mi South 11.2 mph - -   Mist
9:05 AM 41.0 °F 34.7 °F 41.0 °F 100% 29.89 in 3.7 mi South 10.4 mph - N/A   Mostly Cloudy
9:25 AM 42.8 °F 37.0 °F 41.0 °F 93% 29.89 in 4.3 mi South 10.4 mph - N/A   Partly Cloudy
9:30 AM 42.8 °F 37.0 °F 41.0 °F 93% 29.89 in 5.0 mi South 10.4 mph - N/A   Partly Cloudy
9:43 AM 42.8 °F 36.2 °F 42.8 °F 100% 29.89 in 5.6 mi South 12.7 mph - N/A   Mist
9:55 AM 44.6 °F 38.4 °F 42.8 °F 93% 29.92 in 5.6 mi SSW 12.7 mph - N/A   Mist
10:00 AM 44 °F - 42 °F 91% 29.92 in 6 mi SSW 13.4 mph - -   Mist
10:25 AM 46.4 °F 40.7 °F 42.8 °F 87% 29.92 in 6.2 mi SSW 12.7 mph - N/A   Partly Cloudy
10:55 AM 46.4 °F 40.1 °F 42.8 °F 87% 29.92 in 6.2 mi SSW 15.0 mph - N/A   Partly Cloudy
11:00 AM 47 °F - 43 °F 81% 29.94 in 9 mi SSW 15.7 mph - -   Scattered Clouds
11:25 AM 46.4 °F 39.5 °F 42.8 °F 87% 29.92 in 6.2 mi SSW 17.3 mph - N/A   Partly Cloudy
11:29 AM 48.2 °F - 44.6 °F 87% 29.92 in 6.2 mi SSW 16.1 mph - N/A   Unknown
11:55 AM 46.4 °F 39.2 °F 42.8 °F 87% 29.95 in 6.2 mi SSW 18.4 mph - N/A   Unknown
12:00 PM 48 °F - 43 °F 77% 29.95 in 12 mi SW 15.7 mph - -  
12:25 PM 48.2 °F - 42.8 °F 82% 29.95 in 6.2 mi SSW 16.1 mph - N/A   Unknown
12:50 PM 46.4 °F 39.2 °F 42.8 °F 87% 29.95 in 6.2 mi SW 18.4 mph - N/A   Partly Cloudy
12:55 PM 46.4 °F 39.2 °F 42.8 °F 87% 29.95 in 6.2 mi SW 18.4 mph - N/A   Partly Cloudy
12:57 PM 46.4 °F 39.5 °F 42.8 °F 87% 29.95 in 6.2 mi SW 17.3 mph - N/A   Mostly Cloudy
1:00 PM 46 °F - 43 °F 84% 29.96 in 9 mi SW 17.9 mph - -   Partly Cloudy
1:24 PM 46.4 °F 39.5 °F 42.8 °F 87% 29.95 in 6.2 mi SW 17.3 mph - N/A   Scattered Clouds
1:25 PM 46.4 °F 39.2 °F 42.8 °F 87% 29.95 in 6.2 mi SW 18.4 mph - N/A   Mostly Cloudy
1:55 PM 48.2 °F - 42.8 °F 82% 29.95 in 6.2 mi SSW 17.3 mph - N/A   Partly Cloudy
2:00 PM 47 °F - 43 °F 80% 29.97 in 8 mi SW 17.9 mph - -   Scattered Clouds
2:18 PM 46.4 °F 39.5 °F 42.8 °F 87% 29.95 in 6.2 mi SSW 17.3 mph - N/A   Overcast
2:25 PM 46.4 °F 39.5 °F 44.6 °F 93% 29.95 in 6.2 mi SSW 17.3 mph - N/A   Overcast
2:55 PM 48.2 °F - 44.6 °F 87% 29.98 in 6.2 mi SSW 19.6 mph - N/A   Overcast
3:00 PM 47 °F - 43 °F 82% 29.98 in 8 mi SSW 17.9 mph - -   Partly Cloudy
3:25 PM 48.2 °F - 42.8 °F 82% 29.98 in 6.2 mi SSW 17.3 mph - N/A   Partly Cloudy
3:28 PM 48.2 °F - 42.8 °F 82% 29.98 in 6.2 mi SW 16.1 mph - N/A   Partly Cloudy
3:55 PM 48.2 °F - 44.6 °F 87% 29.98 in 6.2 mi SW 17.3 mph - N/A   Partly Cloudy
4:00 PM 47 °F - 44 °F 85% 29.99 in 7 mi SW 15.7 mph - -   Scattered Clouds
4:25 PM 48.2 °F - 44.6 °F 87% 29.98 in 6.2 mi SW 16.1 mph - N/A   Partly Cloudy
4:55 PM 46.4 °F 39.8 °F 42.8 °F 87% 29.98 in 6.2 mi SSW 16.1 mph - N/A   Partly Cloudy
5:00 PM 47 °F - 43 °F 82% 30.00 in 8 mi SSW 15.7 mph - -  
5:25 PM 46.4 °F 40.1 °F 42.8 °F 87% 29.98 in 6.2 mi SW 15.0 mph - N/A   Unknown
5:55 PM 44.6 °F 38.1 °F 42.8 °F 93% 30.01 in 6.2 mi SSW 13.8 mph - N/A   Unknown
6:00 PM 45 °F - 43 °F 92% 30.02 in 6 mi SW 13.4 mph - -   Mist
6:25 PM 44.6 °F 37.8 °F 42.8 °F 93% 30.01 in 5.6 mi SSW 15.0 mph - N/A   Mist
6:55 PM 44.6 °F 38.1 °F 42.8 °F 93% 30.01 in 5.6 mi SSW 13.8 mph - N/A   Mist
7:00 PM 44 °F - 43 °F 93% 30.02 in 6 mi SSW 13.4 mph - -   Mist
7:25 PM 42.8 °F 36.2 °F 42.8 °F 100% 30.01 in 5.6 mi SSW 12.7 mph - N/A   Mist
7:55 PM 42.8 °F 36.2 °F 42.8 °F 100% 30.01 in 5.6 mi SSW 12.7 mph - N/A   Mist
8:00 PM 43 °F - 42 °F 96% 30.03 in 5 mi SSW 11.2 mph - -   Mist
8:25 PM 42.8 °F 36.6 °F 41.0 °F 93% 30.01 in 5.6 mi SSW 11.5 mph - N/A   Mist
8:55 PM 42.8 °F 37.0 °F 41.0 °F 93% 30.01 in 6.2 mi SSW 10.4 mph - N/A   Unknown
9:00 PM 43 °F - 42 °F 92% 30.04 in 6 mi SSW 11.2 mph - -  
9:15 PM 42.8 °F 37.0 °F 41.0 °F 93% 30.04 in 6.2 mi SSW 10.4 mph - N/A   Unknown
9:25 PM 42.8 °F 37.0 °F 41.0 °F 93% 30.04 in 6.2 mi SSW 10.4 mph - N/A   Unknown
9:55 PM 42.8 °F 37.0 °F 41.0 °F 93% 30.04 in 6.2 mi SSW 10.4 mph - N/A   Unknown
10:00 PM 42 °F - 41 °F 94% 30.04 in 7 mi SSW 11.2 mph - -  
10:25 PM 41.0 °F 34.7 °F 41.0 °F 100% 30.04 in 6.2 mi South 10.4 mph - N/A   Unknown
10:55 PM 41.0 °F 35.2 °F 41.0 °F 100% 30.04 in 6.2 mi South 9.2 mph - N/A   Unknown
11:00 PM 40 °F - 40 °F 98% 30.04 in 6 mi South 8.9 mph - -  
11:25 PM 41.0 °F 34.7 °F 41.0 °F 100% 30.04 in 6.2 mi SSW 10.4 mph - N/A   Unknown
11:55 PM 41.0 °F 34.3 °F 41.0 °F 100% 30.04 in 6.2 mi South 11.5 mph - N/A   Partly Cloudy